GFSWCAN_700_rhum_246.txt.gz
RH
100 100 99 100 100 100 99 97 96 97 95 60 35 34 32 28 24 22 15 6 5 5 9 7 11 20 35 47 78 70 91 74 72 87 70 83 85 71 78 81 92 87 85 85 88 78 94 84 78 91 100 86 100 94
99 100 100 100 100 99 98 99 100 94 94 52 46 39 32 26 24 23 10 6 5 6 8 9 17 25 38 48 60 87 96 92 77 84 97 75 83 92 82 97 97 94 89 96 99 87 98 95 100 100 100 100 100 100
98 100 100 99 100 99 97 98 97 94 69 54 53 46 28 26 25 16 6 6 6 6 12 14 23 34 50 58 70 70 92 82 68 86 86 83 70 92 99 91 93 99 97 87 95 79 76 100 96 100 100 100 100 100
100 100 100 99 100 99 98 95 92 89 71 59 55 31 27 26 21 10 7 7 6 7 10 19 29 42 53 63 68 59 51 47 46 50 87 96 89 99 96 93 74 81 88 88 76 94 85 93 99 100 92 100 100 98
100 99 100 100 99 98 95 89 87 85 68 62 32 28 27 25 14 8 6 8 7 8 12 22 33 45 57 58 47 47 54 52 44 59 84 100 99 95 98 90 89 82 94 97 89 98 100 95 100 99 98 100 100 96
100 99 99 100 98 97 91 87 90 80 62 36 28 28 27 17 7 7 8 7 7 10 15 28 35 49 59 48 54 56 50 50 65 100 100 80 79 78 94 100 88 92 100 100 98 99 100 100 100 100 99 98 98 99
100 99 99 98 99 96 91 89 84 70 40 29 29 29 19 8 6 8 8 7 7 13 20 35 36 48 51 51 68 66 76 80 90 88 96 88 90 85 80 87 77 89 100 100 100 97 96 99 95 98 100 100 100 100
99 99 99 98 97 98 94 87 81 50 31 30 30 19 8 6 8 9 8 7 8 13 19 32 41 38 50 54 63 77 83 86 94 95 86 86 84 84 83 90 71 92 92 99 100 100 100 98 100 100 100 100 100 100
99 99 99 95 98 99 92 80 57 31 31 30 16 7 5 7 8 9 8 8 9 10 14 15 20 43 46 51 55 86 92 95 98 99 91 94 91 84 90 65 72 91 87 93 100 100 100 100 96 77 79 97 94 92
99 99 97 95 95 96 78 62 32 32 30 15 6 5 7 8 11 9 8 8 9 13 15 13 14 30 45 54 62 86 97 98 100 99 94 90 90 87 79 63 86 95 94 96 94 89 83 83 57 44 46 57 72 70
98 96 95 99 94 81 72 34 33 28 11 5 4 6 8 11 11 8 8 10 11 13 13 13 17 21 50 61 64 76 90 97 99 99 97 100 91 89 67 71 94 96 97 99 99 93 86 81 38 44 52 56 62 68
97 97 99 98 88 86 34 34 26 9 3 4 4 7 11 12 10 9 11 14 14 14 17 18 19 22 52 65 71 82 89 98 100 97 99 100 89 67 62 76 94 94 97 98 95 82 81 68 37 46 50 58 61 66
97 97 100 89 84 34 34 23 7 4 4 4 8 10 12 12 11 12 18 19 23 23 24 24 23 22 56 67 77 84 96 100 92 99 98 88 72 57 56 76 96 96 98 98 96 82 80 62 36 43 52 60 68 70
98 97 92 70 35 34 19 5 3 4 4 6 10 11 10 13 14 16 19 24 28 33 31 31 25 29 62 75 79 88 93 94 98 98 96 77 60 51 50 63 88 96 99 96 88 77 75 73 37 40 47 52 62 65
96 94 60 37 32 15 4 3 4 4 5 6 8 10 12 11 13 16 20 24 29 31 34 32 25 33 69 79 86 92 97 98 99 97 95 64 54 49 48 51 72 93 99 97 87 80 70 75 59 37 41 47 53 60
91 74 43 30 11 4 4 4 4 4 5 5 6 8 11 14 17 20 22 26 31 38 40 36 32 67 80 80 88 93 98 100 99 99 92 62 53 52 52 50 52 70 95 98 90 83 70 70 75 64 42 41 46 50
64 35 22 7 4 4 4 4 4 4 5 7 10 14 16 20 22 24 26 32 37 45 48 48 41 68 75 94 93 98 99 99 98 99 98 67 56 58 58 56 57 54 76 97 94 88 81 67 70 80 78 49 42 44
32 16 5 4 4 4 4 4 4 5 8 11 14 18 22 25 30 36 39 40 41 47 46 49 50 66 92 98 100 100 100 99 100 99 100 83 59 59 63 62 62 56 54 75 93 88 85 77 69 75 78 81 54 42
11 4 4 4 4 4 4 5 6 7 10 12 18 21 25 33 40 42 42 43 44 48 53 53 63 74 80 85 100 99 100 99 99 99 100 98 76 62 64 67 64 63 53 56 83 90 82 78 71 68 75 78 80 59
4 4 4 4 4 5 5 7 8 8 13 15 20 24 32 38 42 42 36 39 43 48 57 67 76 85 89 89 98 98 100 98 97 98 98 100 98 82 70 71 70 66 59 51 57 86 90 83 82 70 64 70 82 86
4 4 4 4 5 6 6 9 10 9 15 16 23 29 33 43 48 50 41 40 54 59 65 66 66 68 75 88 96 97 97 96 96 95 96 95 97 98 90 82 78 68 65 56 50 65 87 86 80 79 63 72 81 84
4 5 5 5 6 8 8 9 11 11 16 19 23 22 30 40 46 51 40 52 63 71 71 69 71 75 77 77 79 80 84 89 94 96 97 96 95 97 100 97 91 79 69 65 54 49 72 88 84 82 73 66 76 82
5 5 6 7 7 9 11 10 11 11 14 14 14 17 22 27 35 44 48 53 59 65 63 71 73 76 79 80 81 81 80 79 77 76 86 97 98 97 97 98 98 94 77 70 62 51 53 82 88 83 82 66 77 85
6 6 7 8 9 10 10 11 12 12 12 14 14 16 20 26 30 38 39 41 46 48 59 65 67 68 69 68 66 64 64 63 68 75 75 74 91 100 99 98 98 97 92 77 74 63 52 67 89 86 84 74 74 88
7 7 8 9 10 11 12 14 14 14 14 14 15 17 24 25 27 28 31 36 42 49 56 61 63 62 59 55 56 56 55 54 54 54 64 76 77 84 98 99 98 98 97 90 78 75 62 52 78 89 84 85 73 92
7 8 9 10 12 12 14 16 18 18 17 17 18 21 23 23 23 26 34 40 46 52 56 61 60 56 53 54 52 51 48 46 45 45 48 54 78 86 84 99 99 99 99 99 86 80 75 60 58 85 88 84 75 85
8 9 11 12 14 15 17 18 21 23 23 22 24 26 26 26 27 32 41 45 47 52 55 57 57 53 53 53 53 54 52 48 44 42 43 52 60 88 95 93 98 100 100 100 99 86 81 75 58 67 90 88 88 79
10 12 13 15 17 18 19 21 24 27 30 30 30 32 32 33 36 44 46 48 47 45 46 46 52 55 57 58 59 58 56 52 46 43 43 58 72 86 100 100 99 99 100 100 100 98 88 84 75 58 80 92 89 82
11 12 13 15 17 19 20 23 26 30 34 37 38 39 38 39 45 50 55 54 50 48 46 46 52 60 63 65 65 62 60 59 55 50 49 57 88 99 100 100 100 100 100 100 100 100 100 90 86 73 60 87 93 92
11 12 14 16 18 19 22 25 28 31 36 39 40 40 38 39 44 53 60 60 51 48 47 53 64 69 73 73 68 64 66 66 62 59 60 67 82 99 100 100 100 100 100 100 100 100 100 100 94 89 69 63 91 94
15 16 17 19 20 22 24 26 29 33 40 40 40 40 39 31 29 36 54 54 49 58 69 74 79 83 83 77 68 66 69 68 66 65 70 79 88 99 100 100 100 100 100 100 100 100 100 100 100 98 91 68 67 93
19 20 21 23 24 26 28 30 35 43 45 44 43 39 34 34 34 36 40 45 59 72 86 90 95 94 87 78 70 70 75 73 72 73 82 90 96 100 100 100 100 100 100 100 100 100 100 100 100 100 98 88 66 70
22 25 28 30 32 34 38 45 49 51 48 46 40 38 44 50 50 48 46 49 65 90 99 100 100 95 85 77 77 80 81 78 79 83 91 96 98 100 100 100 100 100 100 100 100 100 100 100 100 100 100 92 81 65

GFSWCAN_700_rhum_249.txt.gz
RH
100 100 100 99 100 99 99 99 98 99 99 91 84 68 52 50 32 25 12 3 2 3 5 5 9 17 28 37 46 65 76 63 65 71 66 65 74 80 81 89 100 98 85 88 87 92 94 85 79 92 98 88 100 98
96 98 100 100 100 100 100 99 94 94 91 86 73 62 60 38 27 22 5 2 3 3 5 6 13 22 36 47 59 67 65 73 61 65 80 68 67 72 84 100 98 91 88 96 93 88 98 100 100 100 100 100 100 99
91 89 100 100 100 100 100 98 91 85 84 82 70 62 46 29 26 13 3 3 4 4 8 10 17 30 41 54 58 55 57 46 48 57 71 74 70 85 83 92 99 77 82 85 85 83 86 100 100 100 100 100 100 100
97 100 100 100 99 100 99 95 88 80 82 81 67 56 31 28 21 6 3 4 4 4 6 12 19 28 42 49 44 39 39 39 37 42 57 81 82 94 97 96 84 80 84 84 75 86 84 96 99 98 96 100 100 99
100 100 100 99 99 100 99 93 88 84 82 74 66 35 29 26 10 4 4 5 5 5 6 14 24 29 41 40 40 46 44 39 39 51 84 97 91 95 88 91 81 82 75 94 91 98 100 96 100 99 99 100 100 97
100 100 100 99 99 100 97 94 89 88 82 73 42 31 29 14 4 4 5 5 5 5 6 17 22 27 39 40 54 52 42 44 60 82 86 81 83 86 82 90 91 79 94 100 100 100 100 100 100 100 100 100 100 100
100 100 99 99 98 99 96 93 92 88 78 59 34 30 19 5 3 5 6 6 6 7 8 21 24 28 38 40 56 68 71 84 93 88 86 82 85 88 89 89 86 74 99 100 100 94 94 99 94 90 88 100 100 100
100 99 98 100 100 98 95 92 95 82 72 38 30 23 7 3 5 6 7 6 7 7 9 12 16 20 30 42 47 73 85 95 95 99 93 91 88 86 87 93 67 81 96 100 100 99 99 98 92 62 56 64 74 66
99 99 98 98 99 99 93 94 85 78 42 31 26 8 4 4 6 7 7 7 8 8 10 10 11 17 20 37 50 66 97 100 100 100 100 99 93 85 95 72 63 85 93 89 98 99 100 90 52 49 53 56 59 65
99 98 99 98 97 99 96 92 81 48 32 26 8 4 4 6 8 9 8 8 8 10 11 12 12 16 21 39 58 71 99 100 100 100 100 99 94 90 77 60 69 93 97 92 93 84 75 78 39 47 48 55 64 71
98 98 98 97 97 96 94 80 57 33 25 7 4 4 5 8 9 8 8 9 11 12 12 14 16 16 27 47 58 70 90 99 100 100 100 98 87 84 65 61 78 97 98 96 98 85 73 76 37 44 52 58 62 68
98 98 98 98 97 96 87 62 34 26 6 3 3 4 8 10 8 8 9 12 14 15 19 22 21 19 22 50 66 79 87 97 100 100 100 98 98 65 56 59 78 97 100 99 94 85 75 81 42 45 51 60 63 64
98 98 97 97 96 92 73 34 25 5 3 3 4 6 8 8 8 11 11 13 18 21 26 27 26 22 30 62 74 83 95 99 96 100 98 98 71 55 50 54 71 93 98 98 92 86 76 82 55 40 50 54 63 67
97 97 96 96 90 74 35 23 5 3 3 3 5 8 6 8 8 9 13 17 20 24 27 27 27 24 43 72 77 82 91 94 98 98 100 97 66 52 50 49 54 79 95 96 92 84 75 76 80 50 42 47 53 64
98 97 96 90 61 35 19 4 3 3 3 3 6 5 6 7 10 13 17 20 22 25 27 31 28 32 66 79 84 92 96 96 98 100 100 94 63 53 56 55 55 56 80 96 93 86 81 71 74 76 56 43 45 52
97 95 87 46 35 15 4 3 3 3 3 4 4 6 8 11 15 19 20 21 24 26 33 33 36 60 82 81 87 92 91 92 100 100 100 98 68 57 60 59 59 56 58 84 93 88 83 72 72 73 75 68 46 45
96 92 77 36 12 3 3 3 3 3 4 5 6 8 12 15 20 23 26 28 31 36 38 44 47 63 65 93 92 92 98 100 97 98 100 100 85 62 62 65 63 62 54 63 93 94 87 82 70 70 80 83 69 45
82 45 27 7 4 3 3 3 4 4 5 6 9 10 14 19 25 31 32 33 38 42 48 56 58 66 82 90 75 88 100 100 100 100 100 100 98 79 67 70 70 64 59 54 69 92 90 86 81 69 73 81 88 65
75 25 4 3 3 3 3 4 4 4 7 8 9 12 17 24 31 35 35 31 38 44 47 57 62 69 81 83 76 93 99 99 100 100 100 100 100 99 83 74 76 70 67 57 56 78 89 85 81 74 68 79 83 85
11 4 4 4 4 4 4 5 5 6 8 9 10 14 20 25 33 39 39 35 44 46 57 60 58 61 65 78 89 94 95 96 96 97 99 100 99 100 100 95 88 82 71 66 55 60 87 91 86 84 72 71 81 88
4 4 4 4 4 4 5 6 6 7 8 9 11 12 19 25 32 37 44 36 50 51 60 60 61 63 65 66 68 72 79 84 88 91 94 96 96 98 99 100 99 95 84 72 65 55 69 90 88 83 80 68 82 84
4 4 4 5 6 6 6 7 7 7 10 10 11 12 14 19 24 31 30 40 44 53 56 60 66 69 70 70 71 71 72 73 72 69 66 76 88 94 98 99 100 100 98 83 74 63 56 78 91 86 82 71 76 85
4 5 5 6 7 8 8 8 8 9 10 11 10 12 13 18 21 24 26 29 37 44 50 58 61 63 64 62 60 59 60 59 59 60 64 68 69 77 93 97 100 100 100 98 82 74 61 56 85 91 84 80 71 88
5 6 6 7 8 8 9 9 10 11 12 12 12 13 14 15 16 19 23 26 31 35 44 50 54 55 55 52 51 53 52 52 52 52 51 53 64 72 74 89 96 100 100 100 99 82 75 60 63 91 89 86 74 90
6 6 7 8 8 9 11 13 14 14 14 14 15 15 16 15 17 19 23 28 34 39 43 47 51 54 53 50 50 52 52 52 51 46 44 43 46 55 76 78 89 98 100 100 100 95 82 76 57 73 94 90 85 89
7 7 8 9 10 11 13 16 17 20 20 19 20 20 20 19 18 20 26 34 35 41 45 51 55 54 55 53 53 54 55 56 56 53 47 43 42 47 57 86 87 91 100 100 100 100 93 84 75 58 84 94 92 80
7 8 9 10 11 13 15 17 20 23 25 25 26 26 26 25 22 23 32 36 42 45 48 49 48 46 46 52 57 60 60 61 58 56 53 48 44 46 63 74 98 99 100 100 100 100 100 93 84 70 63 96 97 94
8 10 11 12 14 16 18 21 23 25 27 28 30 33 33 35 37 41 43 48 53 54 54 53 52 50 48 54 64 67 67 65 60 60 60 56 53 52 73 88 99 100 100 100 100 100 100 100 93 85 67 73 100 100
10 11 12 14 16 18 20 22 24 25 28 32 35 36 35 36 40 42 42 43 49 54 57 51 50 51 58 68 73 76 74 67 62 64 63 59 59 64 76 98 100 100 100 100 100 100 100 100 100 95 86 66 80 100
10 11 13 15 17 18 20 23 25 27 30 34 37 38 37 38 39 34 30 32 40 50 54 52 64 71 77 83 86 83 75 67 65 69 66 63 66 77 88 100 100 100 100 100 100 100 100 100 100 100 97 89 67 82
11 13 14 17 19 21 23 26 28 30 33 38 42 42 41 38 33 33 36 37 38 42 51 69 86 90 96 98 92 82 73 69 71 74 70 69 75 86 97 100 100 100 100 100 100 100 100 100 100 100 100 98 89 69
15 16 17 20 23 24 27 28 30 33 38 43 46 44 41 38 39 44 46 47 47 47 58 83 98 100 99 95 85 79 76 79 79 78 76 79 87 96 100 100 100 100 100 100 100 100 100 100 100 100 100 100 98 87
18 20 22 25 27 28 28 25 27 30 33 38 45 45 47 54 60 56 56 60 59 57 64 79 88 92 91 89 86 82 82 82 80 80 83 88 95 100 100 100 100 100 100 100 100 100 100 100 100 100 100 100 100 94

GFSWCAN_700_rhum_252.txt.gz
RH
94 100 97 100 100 100 99 100 100 91 87 82 81 77 72 62 60 35 17 2 2 2 3 4 7 12 18 22 28 39 44 56 58 74 71 67 70 73 75 87 97 96 76 90 88 96 95 89 86 95 89 85 99 98
100 100 99 100 100 100 99 100 99 92 84 81 81 75 66 65 40 27 5 2 2 2 4 5 10 16 19 30 35 33 40 45 56 58 66 60 68 67 84 89 95 91 79 80 90 97 94 100 100 100 100 100 100 99
93 100 100 100 99 100 100 99 98 93 82 79 78 73 68 46 33 16 2 2 2 3 6 7 12 17 24 34 38 39 40 38 42 46 54 69 63 67 88 85 94 85 84 87 91 90 99 100 100 100 100 100 100 100
98 100 100 100 100 100 99 99 97 90 80 79 79 72 56 36 26 6 2 2 3 3 5 9 14 16 27 31 31 30 33 35 37 39 48 64 74 82 88 91 93 92 87 78 86 94 95 100 100 94 92 100 98 99
100 99 100 100 100 99 99 99 99 92 82 80 77 68 42 31 15 3 3 3 4 4 4 9 15 13 22 23 34 38 38 38 40 40 49 63 87 92 80 81 80 88 72 89 93 99 100 98 94 90 94 91 94 92
98 100 99 100 100 100 98 99 97 96 86 82 76 53 35 25 5 2 3 4 4 4 5 8 10 12 20 19 36 47 43 50 56 59 76 87 88 92 92 87 93 81 73 97 95 97 100 100 100 98 69 66 79 79
99 100 100 100 99 99 98 98 97 96 88 80 69 40 30 11 3 3 4 4 5 5 6 9 8 9 13 20 34 54 74 82 83 91 82 90 93 94 96 99 99 68 92 100 99 98 99 99 86 68 48 58 69 80
98 99 99 98 98 98 98 98 95 93 86 78 45 31 18 4 3 4 4 6 6 7 6 7 8 8 15 25 34 50 84 95 98 100 100 99 96 98 92 88 80 71 99 100 100 100 97 90 82 47 52 58 69 72
99 99 99 99 98 97 97 97 95 92 92 53 32 24 5 3 4 4 6 6 8 7 8 8 11 12 14 25 42 54 80 100 100 100 100 100 97 95 94 79 62 76 96 100 100 99 96 88 66 40 49 61 62 64
99 99 98 99 98 98 96 97 95 94 81 33 26 5 3 4 5 7 7 8 8 9 10 10 14 15 16 25 45 63 87 100 100 100 100 98 98 93 73 57 56 81 98 99 99 99 82 83 48 44 50 56 58 64
100 100 98 98 98 97 96 97 95 91 44 28 6 3 4 5 7 7 7 6 9 10 11 14 18 18 24 27 47 64 81 98 100 100 100 99 99 91 62 54 57 84 99 100 100 90 76 73 63 40 49 53 58 65
100 99 98 98 97 99 96 94 92 45 29 6 3 3 4 7 7 7 7 8 9 12 15 18 20 22 21 27 56 73 84 92 100 100 100 99 99 73 58 53 55 74 98 100 100 93 84 71 80 50 41 50 54 60
100 98 97 97 97 97 96 95 47 30 6 3 3 4 4 6 7 7 7 9 11 15 18 20 24 25 26 43 64 78 90 96 94 100 100 99 96 65 57 58 56 59 79 99 100 94 87 72 75 78 50 44 49 58
98 97 97 96 97 96 96 42 28 5 3 3 3 4 4 5 6 7 9 12 15 16 18 19 23 26 33 57 75 79 89 94 99 100 100 100 96 65 60 61 61 61 60 88 100 95 90 78 73 79 78 54 44 51
97 96 97 97 96 95 51 25 4 3 3 3 3 3 5 6 8 8 11 15 16 19 20 24 25 30 54 74 80 86 95 98 100 100 99 98 99 73 62 66 66 65 58 64 94 97 92 86 71 70 79 80 54 44
96 96 97 96 94 57 21 4 3 3 3 3 4 5 6 8 8 11 15 19 21 23 26 28 36 46 74 78 82 91 92 97 100 100 94 98 100 94 69 69 69 66 61 55 69 93 90 85 78 68 67 73 80 53
98 97 96 93 64 23 4 4 3 3 3 4 5 5 6 7 10 14 19 21 20 24 30 38 43 50 48 84 88 89 90 97 100 100 100 100 100 100 88 73 79 73 69 58 56 84 95 88 84 74 74 80 80 80
97 96 96 48 19 4 4 3 3 4 4 5 5 6 8 8 11 17 21 20 19 26 34 42 50 56 60 66 70 74 86 99 99 100 100 100 100 100 100 93 86 89 75 68 56 61 91 94 90 87 71 75 83 88
96 91 79 19 4 3 3 4 4 4 5 5 5 6 8 10 14 17 20 23 24 30 37 46 50 53 63 69 77 84 90 94 97 98 99 98 100 100 100 100 99 97 95 75 69 56 68 91 88 84 78 72 82 87
91 59 6 3 3 3 4 4 5 5 6 6 6 7 7 8 9 12 18 23 25 33 43 49 53 54 54 55 58 65 73 80 84 87 89 92 95 96 98 99 100 100 99 94 75 67 56 74 90 87 86 73 80 88
21 6 4 4 4 4 5 5 5 6 6 7 6 6 7 7 9 13 15 18 32 32 39 43 48 50 54 57 59 60 62 62 62 63 67 72 74 86 95 98 99 100 100 100 94 76 65 56 84 91 88 82 76 89
16 4 4 4 5 5 6 6 6 6 7 7 7 8 7 9 10 10 11 18 24 31 35 42 53 57 54 52 52 52 53 53 53 53 53 56 63 69 74 87 99 99 100 100 100 88 77 64 58 88 90 88 76 90
4 4 5 5 6 7 7 7 7 7 7 8 9 9 9 9 9 11 14 16 20 26 30 41 50 53 52 51 50 49 52 52 52 50 48 47 49 52 66 72 81 98 100 100 100 100 84 75 61 63 91 90 84 86
4 5 6 6 7 7 8 8 8 8 9 10 11 11 11 12 12 13 13 15 17 22 30 39 43 48 51 53 52 51 50 51 53 56 53 51 46 45 47 56 74 79 98 100 100 100 98 83 76 59 74 94 93 84
6 6 7 7 7 8 9 9 10 11 12 13 13 14 14 16 16 15 14 18 26 29 33 36 43 48 55 59 58 57 55 56 56 59 59 55 51 46 44 48 55 82 89 100 100 100 100 97 83 76 62 89 96 92
6 7 8 8 8 9 10 11 12 14 15 16 17 18 20 20 19 16 18 22 27 33 38 45 50 54 56 55 54 53 58 61 62 62 62 58 57 54 49 45 57 70 96 98 100 100 100 100 98 86 71 67 94 95
6 7 8 8 8 9 10 13 13 15 17 19 20 23 24 25 24 25 32 37 38 43 49 55 59 61 59 60 60 58 63 68 69 69 64 60 61 60 57 54 68 84 100 100 100 100 100 100 100 99 88 68 79 98
7 8 8 9 10 12 12 14 16 18 20 23 26 28 28 28 30 34 35 36 40 43 47 52 59 57 54 56 58 66 73 77 78 74 66 63 65 62 60 61 72 98 100 100 100 100 100 100 100 100 99 89 68 84
9 10 10 12 12 14 16 18 19 22 24 26 29 33 33 35 36 36 37 33 29 29 32 38 52 52 62 70 77 82 87 87 82 72 64 66 66 65 66 71 82 98 100 100 100 100 100 100 100 100 100 100 88 68
10 11 12 12 14 16 18 20 23 25 27 30 32 35 40 41 40 41 35 31 32 35 38 41 47 69 87 90 96 96 92 82 73 70 70 72 71 68 72 81 91 99 100 100 100 100 100 100 100 100 100 100 99 87
10 11 12 13 16 18 21 23 23 25 26 27 32 37 44 43 42 38 37 40 43 46 49 48 57 86 97 96 93 86 80 76 76 78 78 77 74 75 83 92 97 100 100 100 100 100 100 100 100 100 100 100 100 100
10 12 13 15 18 21 23 24 24 21 22 24 29 36 44 45 43 45 54 56 56 59 59 57 67 85 89 88 86 80 78 79 79 79 78 76 79 83 92 100 100 100 100 100 100 100 100 100 100 100 100 100 100 100
12 15 16 18 21 23 26 27 25 24 24 25 31 38 46 53 56 54 57 62 69 74 70 67 75 84 86 76 68 66 70 76 77 74 75 81 87 90 95 100 100 99 100 100 100 100 100 100 100 100 100 100 100 100

GFSWCAN_700_rhum_255.txt.gz
RH
53 70 94 89 100 100 100 100 100 99 100 90 81 76 68 67 64 54 36 6 2 2 2 3 4 5 8 11 21 31 28 44 45 60 74 68 66 71 75 78 80 93 83 75 82 98 93 85 90 99 98 86 92 92
63 74 95 97 91 100 100 99 100 100 99 89 77 73 68 67 64 46 23 2 2 2 3 3 5 8 9 16 17 23 28 34 43 54 65 57 63 66 72 74 79 90 95 97 90 82 93 100 98 100 100 100 100 100
64 99 99 100 99 100 100 100 99 99 99 90 78 72 72 70 55 39 7 2 2 2 4 4 7 9 12 16 18 21 30 28 34 39 44 58 63 63 67 81 90 91 95 90 80 76 99 100 100 100 100 100 100 100
83 99 100 100 99 100 100 99 99 98 98 94 84 74 73 64 46 23 2 2 2 2 4 5 9 8 13 15 17 29 32 34 30 31 39 50 66 65 75 86 86 99 99 75 62 91 92 99 100 100 95 97 69 82
69 100 99 100 99 99 99 99 99 98 97 96 86 78 73 54 37 9 2 3 3 2 3 5 10 8 13 11 18 32 37 36 31 34 41 56 70 85 80 80 83 97 90 62 82 97 96 98 94 93 90 52 55 62
80 90 99 100 99 99 99 99 98 96 98 94 94 82 67 45 23 3 2 4 3 3 4 5 7 8 12 12 19 28 49 46 43 55 75 92 90 93 92 94 96 95 79 63 88 91 97 97 100 96 68 52 62 66
87 95 99 99 99 99 98 98 99 98 98 97 95 74 48 32 7 3 4 3 4 4 4 7 6 8 11 12 22 29 45 68 81 92 90 94 97 98 98 100 96 95 63 85 94 89 97 100 88 79 44 56 65 74
86 92 100 99 99 99 99 98 98 98 98 97 91 75 36 16 3 3 3 4 4 4 4 6 7 9 13 13 17 32 49 79 97 100 100 100 92 99 98 94 93 61 66 99 97 97 99 94 85 74 48 53 66 72
97 100 99 99 99 98 98 98 98 97 96 96 93 43 25 4 3 3 4 5 5 4 6 7 9 13 15 15 21 38 58 86 99 100 100 100 97 100 99 71 58 54 76 98 100 100 99 88 89 62 44 53 62 66
100 98 99 99 99 98 98 98 97 98 97 95 61 34 6 3 4 5 5 6 6 6 8 9 12 15 18 17 24 45 66 91 100 100 100 97 100 100 82 54 49 52 77 94 97 100 100 90 87 64 40 48 52 58
99 99 99 99 98 98 97 98 97 97 95 92 46 9 3 4 5 5 5 5 6 8 10 11 15 18 23 19 26 50 73 96 99 96 99 99 100 98 65 51 51 53 64 88 95 96 89 79 75 80 52 44 47 51
84 99 97 98 97 98 96 97 96 95 95 58 11 4 4 5 5 4 5 5 6 8 10 13 17 18 20 21 36 68 82 92 95 93 99 100 100 91 61 55 56 59 58 71 94 100 94 88 77 83 80 53 44 46
100 98 98 97 97 99 97 96 96 95 70 10 3 4 4 4 4 4 4 5 7 9 12 16 18 20 24 32 43 75 89 94 92 99 100 100 98 94 60 60 61 61 57 57 79 96 93 90 78 76 81 81 53 45
98 100 98 99 100 95 97 96 95 74 8 3 3 4 3 3 3 4 5 6 8 13 16 17 19 22 30 43 71 80 85 89 96 98 100 99 96 96 78 70 70 65 64 56 63 95 96 91 87 76 77 80 78 49
99 98 98 98 96 97 96 95 79 13 3 3 3 3 3 4 4 4 5 7 11 14 14 17 22 29 44 67 75 77 89 90 94 97 94 91 91 96 97 86 82 77 68 62 57 78 98 93 88 79 73 79 84 68
99 99 97 97 97 97 95 80 23 4 3 3 3 3 4 4 4 5 6 8 11 12 16 20 30 38 58 49 65 82 79 83 92 92 92 92 96 98 100 97 88 89 84 70 59 56 82 93 88 85 71 70 81 87
99 97 96 96 96 95 92 37 4 3 3 3 4 3 3 4 5 5 6 9 11 14 18 27 31 35 37 51 60 66 66 64 89 94 96 96 96 98 98 100 97 94 95 86 70 56 58 86 90 84 82 74 80 85
98 96 96 96 95 95 25 5 3 3 3 4 4 4 4 5 5 6 6 10 13 15 22 26 33 38 40 48 59 70 73 81 91 92 91 93 96 97 98 98 99 100 99 99 84 69 55 65 90 91 88 75 77 85
97 97 96 96 78 12 6 4 4 4 4 4 4 4 5 5 5 6 7 9 11 16 23 28 31 38 43 47 50 56 66 75 84 85 84 86 89 93 95 96 98 99 100 100 99 82 68 56 75 88 86 81 71 87
96 95 95 79 11 4 4 4 4 4 4 5 5 5 5 5 5 6 7 8 12 17 21 23 28 38 40 41 47 52 54 56 60 62 62 63 66 69 76 89 98 100 99 99 98 97 80 67 54 77 87 85 74 85
97 94 28 6 8 5 4 4 4 5 5 5 5 5 6 6 6 6 7 8 12 13 18 22 30 35 40 44 45 45 47 49 50 52 52 55 55 58 64 70 76 91 100 100 100 100 98 81 67 61 87 89 84 80
60 32 53 21 5 5 5 5 5 5 5 5 6 7 7 7 7 8 8 8 9 11 18 22 29 39 44 45 47 48 48 50 51 50 49 50 49 48 50 53 66 74 82 98 100 100 100 96 81 65 64 88 89 79
80 70 15 5 6 6 6 5 5 6 6 6 7 8 8 9 9 9 9 9 10 12 16 19 29 38 47 50 52 53 53 53 53 53 52 53 57 54 50 47 49 56 76 86 99 100 100 100 93 81 62 74 90 86
21 5 5 5 6 6 6 6 6 6 6 7 9 10 10 11 11 11 12 12 14 16 20 27 33 38 42 49 55 60 56 57 57 59 59 58 62 59 54 50 46 48 54 82 96 100 100 100 100 93 80 63 86 91
8 8 6 6 6 6 6 7 7 7 8 10 10 11 12 13 14 14 16 17 20 23 27 30 33 40 46 53 60 62 58 57 53 62 66 65 65 63 60 58 55 50 53 66 96 100 100 100 100 100 95 74 70 95
6 6 7 7 7 7 7 8 8 9 10 11 12 13 14 15 17 15 19 22 26 30 34 40 46 52 58 63 63 65 65 64 62 65 71 72 71 66 63 64 61 58 60 74 97 100 100 100 100 100 100 95 71 81
6 6 6 7 7 7 7 8 9 10 12 13 14 16 18 19 18 18 23 26 30 32 35 39 41 44 51 62 59 58 59 61 68 75 80 80 76 66 65 66 62 62 64 86 100 100 100 100 100 100 100 100 93 70
6 7 7 7 8 8 8 10 12 13 14 16 18 20 22 23 25 29 30 32 35 37 34 30 32 35 42 47 55 66 73 78 85 88 87 80 72 68 68 68 66 68 78 97 100 100 100 100 100 100 100 100 100 87
7 8 8 9 9 10 12 13 14 16 17 19 22 25 27 30 34 36 37 38 40 35 32 34 39 41 43 55 77 86 92 92 90 84 77 72 72 74 74 71 71 78 90 100 100 100 100 100 100 100 100 100 100 100
9 9 9 10 11 12 13 14 15 15 15 16 17 19 23 30 36 40 42 42 39 38 42 46 49 49 50 70 84 84 80 77 74 74 74 76 78 77 76 76 79 88 97 100 100 100 100 100 100 100 100 100 100 100
10 10 11 11 12 14 15 15 18 19 17 16 17 18 20 24 28 39 40 40 45 53 56 58 60 58 62 73 76 76 67 62 65 72 75 75 76 77 79 83 90 98 100 100 100 100 100 100 100 100 100 100 100 100
10 11 11 12 14 16 18 19 21 22 21 19 20 21 25 28 35 40 49 49 52 59 65 72 70 67 71 78 74 64 62 60 56 61 69 71 72 78 87 95 100 100 100 100 100 100 100 100 100 100 100 100 100 100
9 11 12 13 16 18 20 21 22 21 20 21 22 22 29 35 45 45 49 54 62 69 80 83 80 82 84 84 83 83 84 78 65 65 71 73 78 87 95 100 100 100 100 100 100 100 100 100 100 100 100 100 100 100